| time (UTC) | temp F | wind direction | speed MPH | gust MPH | rain 1hr in | rain 24hr in | rain mn in | humidity % | barometer mb |
| 20260508080637 | 52 | 126 | 2.0 | 2.0 | 0.00 | 0.00 | 0.00 | 65 | 1009.6 |
| 20260508080138 | 51 | 247 | 0.0 | 2.0 | 0.00 | 0.00 | 0.00 | 64 | 1009.6 |
| 20260508075630 | 51 | 64 | 1.0 | 3.0 | 0.00 | 0.00 | 0.00 | 66 | 1009.7 |
| 20260508075131 | 50 | 31 | 1.0 | 4.0 | 0.00 | 0.00 | 0.00 | 68 | 1009.9 |
| 20260508074631 | 50 | 334 | 2.0 | 4.0 | 0.00 | 0.00 | 0.00 | 69 | 1009.9 |
| 20260508073629 | 51 | 255 | 2.0 | 3.0 | 0.00 | 0.00 | 0.00 | 70 | 1009.7 |
| 20260508072629 | 51 | 186 | 2.0 | 4.0 | 0.00 | 0.00 | 0.00 | 70 | 1009.2 |
| 20260508072129 | 51 | 209 | 1.0 | 4.0 | 0.00 | 0.00 | 0.00 | 69 | 1009.3 |
| 20260508071628 | 51 | 209 | 2.0 | 4.0 | 0.00 | 0.00 | 0.00 | 66 | 1009.4 |
| 20260508071128 | 50 | 26 | 1.0 | 2.0 | 0.00 | 0.00 | 0.00 | 67 | 1009.4 |
| 20260508070629 | 50 | 9 | 1.0 | 2.0 | 0.00 | 0.00 | 0.00 | 69 | 1009.5 |
| 20260508070124 | 50 | 9 | 1.0 | 2.0 | 0.00 | 0.00 | 0.00 | 71 | 1009.6 |
| 20260508065623 | 49 | 221 | 0.0 | 2.0 | 0.00 | 0.00 | 0.00 | 72 | 1009.6 |
| 20260508065123 | 49 | 137 | 1.0 | 2.0 | 0.00 | 0.00 | 0.00 | 71 | 1009.7 |
| 20260508064622 | 49 | 319 | 0.0 | 2.0 | 0.00 | 0.00 | 0.00 | 72 | 1009.8 |
| 20260508064122 | 49 | 34 | 1.0 | 2.0 | 0.00 | 0.00 | 0.00 | 73 | 1009.8 |
| 20260508063622 | 48 | 111 | 1.0 | 2.0 | 0.00 | 0.00 | 0.00 | 74 | 1009.8 |
| 20260508063121 | 48 | 93 | 0.0 | 2.0 | 0.00 | 0.00 | 0.00 | 73 | 1009.9 |
| 20260508062621 | 48 | 334 | 1.0 | 2.0 | 0.00 | 0.00 | 0.00 | 73 | 1009.9 |
| 20260508061620 | 47 | 178 | 0.0 | 3.0 | 0.00 | 0.00 | 0.00 | 74 | 1009.8 |
| 20260508061120 | 47 | 334 | 1.0 | 3.0 | 0.00 | 0.00 | 0.00 | 74 | 1009.7 |
| 20260508060620 | 47 | 336 | 1.0 | 2.0 | 0.00 | 0.00 | 0.00 | 74 | 1009.4 |
| 20260508060119 | 47 | 205 | 1.0 | 2.0 | 0.00 | 0.00 | 0.00 | 74 | 1009.5 |
| 20260508055118 | 47 | 334 | 0.0 | 1.0 | 0.00 | 0.00 | 0.00 | 75 | 1009.3 |
| 20260508054620 | 47 | 238 | 0.0 | 2.0 | 0.00 | 0.00 | 0.00 | 76 | 1009.5 |
| 20260508054113 | 47 | 265 | 1.0 | 2.0 | 0.00 | 0.00 | 0.00 | 76 | 1009.6 |
| 20260508053612 | 47 | 212 | 0.0 | 2.0 | 0.00 | 0.00 | 0.00 | 76 | 1009.5 |
| 20260508052602 | 47 | 321 | 1.0 | 3.0 | 0.00 | 0.00 | 0.00 | 76 | 1009.5 |
| 20260508052102 | 47 | 22 | 1.0 | 2.0 | 0.00 | 0.00 | 0.00 | 75 | 1009.5 |
| 20260508051602 | 47 | 9 | 1.0 | 2.0 | 0.00 | 0.00 | 0.00 | 75 | 1009.5 |
| 20260508051101 | 47 | 330 | 1.0 | 2.0 | 0.00 | 0.00 | 0.00 | 75 | 1009.6 |
| 20260508045601 | 47 | 221 | 1.0 | 2.0 | 0.00 | 0.00 | 0.00 | 73 | 1009.6 |
| 20260508045101 | 47 | 115 | 1.0 | 2.0 | 0.00 | 0.00 | 0.00 | 72 | 1009.7 |
| 20260508044601 | 47 | 282 | 0.0 | 1.0 | 0.00 | 0.00 | 0.00 | 70 | 1009.7 |
| 20260508044100 | 48 | 51 | 0.0 | 1.0 | 0.00 | 0.00 | 0.00 | 70 | 1009.8 |
| 20260508043050 | 48 | 291 | 1.0 | 2.0 | 0.00 | 0.00 | 0.00 | 68 | 1009.7 |
| 20260508042553 | 48 | 205 | 0.0 | 2.0 | 0.00 | 0.00 | 0.00 | 67 | 1009.7 |
| 20260508042050 | 49 | 325 | 1.0 | 2.0 | 0.00 | 0.00 | 0.00 | 66 | 1009.6 |
| 20260508041550 | 49 | 309 | 1.0 | 2.0 | 0.00 | 0.00 | 0.00 | 65 | 1009.8 |
| 20260508041049 | 49 | 153 | 1.0 | 2.0 | 0.00 | 0.00 | 0.00 | 64 | 1009.7 |
| 20260508040550 | 49 | 119 | 1.0 | 2.0 | 0.00 | 0.00 | 0.00 | 65 | 1009.8 |
| 20260508040049 | 49 | 9 | 1.0 | 2.0 | 0.00 | 0.00 | 0.00 | 64 | 1009.8 |
| 20260508035549 | 50 | 279 | 1.0 | 2.0 | 0.00 | 0.00 | 0.00 | 64 | 1009.8 |
| 20260508035049 | 50 | 309 | 1.0 | 2.0 | 0.00 | 0.00 | 0.00 | 63 | 1009.7 |
| 20260508034548 | 50 | 9 | 0.0 | 2.0 | 0.00 | 0.00 | 0.00 | 62 | 1009.5 |
| 20260508034049 | 51 | 51 | 0.0 | 2.0 | 0.00 | 0.00 | 0.00 | 62 | 1009.6 |
| 20260508033548 | 51 | 108 | 2.0 | 2.0 | 0.00 | 0.00 | 0.00 | 62 | 1009.6 |
| 20260508032547 | 51 | 149 | 1.0 | 2.0 | 0.00 | 0.00 | 0.00 | 59 | 1009.6 |
| 20260508032048 | 51 | 158 | 1.0 | 2.0 | 0.00 | 0.00 | 0.00 | 58 | 1009.6 |
| 20260508031546 | 52 | 9 | 0.0 | 1.0 | 0.00 | 0.00 | 0.00 | 57 | 1009.6 |
| 20260508031041 | 52 | 325 | 0.0 | 1.0 | 0.00 | 0.00 | 0.00 | 55 | 1009.7 |
| 20260508030537 | 53 | 309 | 0.0 | 1.0 | 0.00 | 0.00 | 0.00 | 53 | 1009.6 |
| 20260508030036 | 53 | 309 | 0.0 | 1.0 | 0.00 | 0.00 | 0.00 | 51 | 1009.6 |
| 20260508025035 | 55 | 291 | 0.0 | 1.0 | 0.00 | 0.00 | 0.00 | 49 | 1009.5 |
| 20260508024535 | 55 | 309 | 0.0 | 1.0 | 0.00 | 0.00 | 0.00 | 47 | 1009.4 |
| 20260508024035 | 56 | 9 | 0.0 | 1.0 | 0.00 | 0.00 | 0.00 | 45 | 1009.5 |
| 20260508023530 | 57 | 238 | 0.0 | 1.0 | 0.00 | 0.00 | 0.00 | 44 | 1009.3 |
| 20260508022529 | 58 | 221 | 0.0 | 2.0 | 0.00 | 0.00 | 0.00 | 42 | 1009.3 |
| 20260508022029 | 59 | 119 | 0.0 | 2.0 | 0.00 | 0.00 | 0.00 | 41 | 1009.2 |
| 20260508021029 | 61 | 51 | 0.0 | 2.0 | 0.00 | 0.00 | 0.00 | 38 | 1009.1 |
| 20260508020527 | 62 | 221 | 1.0 | 3.0 | 0.00 | 0.00 | 0.00 | 36 | 1008.9 |
| 20260508020022 | 63 | 265 | 1.0 | 3.0 | 0.00 | 0.00 | 0.00 | 33 | 1008.9 |
| 20260508015522 | 63 | 47 | 1.0 | 3.0 | 0.00 | 0.00 | 0.00 | 31 | 1008.7 |
| 20260508015022 | 64 | 44 | 2.0 | 4.0 | 0.00 | 0.00 | 0.00 | 31 | 1008.8 |
| 20260508014522 | 63 | 22 | 2.0 | 4.0 | 0.00 | 0.00 | 0.00 | 30 | 1008.8 |
| 20260508013521 | 62 | 9 | 2.0 | 4.0 | 0.00 | 0.00 | 0.00 | 31 | 1008.8 |
| 20260508012521 | 63 | 34 | 2.0 | 4.0 | 0.00 | 0.00 | 0.00 | 33 | 1008.8 |
| 20260508011520 | 63 | 338 | 3.0 | 4.0 | 0.00 | 0.00 | 0.00 | 34 | 1008.6 |
| 20260508010519 | 64 | 342 | 3.0 | 8.0 | 0.00 | 0.00 | 0.00 | 33 | 1008.4 |
| 20260508010020 | 65 | 23 | 3.0 | 8.0 | 0.00 | 0.00 | 0.00 | 33 | 1008.3 |
| 20260508005520 | 65 | 26 | 4.0 | 9.0 | 0.00 | 0.00 | 0.00 | 33 | 1008.3 |
| 20260508005019 | 65 | 341 | 4.0 | 9.0 | 0.00 | 0.00 | 0.00 | 33 | 1008.2 |
| 20260508004517 | 66 | 336 | 5.0 | 10.0 | 0.00 | 0.00 | 0.00 | 33 | 1008.2 |
| 20260508004018 | 67 | 24 | 4.0 | 10.0 | 0.00 | 0.00 | 0.00 | 33 | 1008.2 |
| 20260508003016 | 68 | 335 | 4.0 | 8.0 | 0.00 | 0.00 | 0.00 | 31 | 1008.1 |
| 20260508002516 | 68 | 341 | 4.0 | 9.0 | 0.00 | 0.00 | 0.00 | 31 | 1008.0 |
| 20260508002015 | 69 | 346 | 4.0 | 9.0 | 0.00 | 0.00 | 0.00 | 30 | 1008.1 |
| 20260508001515 | 69 | 341 | 4.0 | 9.0 | 0.00 | 0.00 | 0.00 | 32 | 1008.1 |
| 20260508000515 | 70 | 329 | 5.0 | 12.0 | 0.00 | 0.00 | 0.00 | 30 | 1008.0 |
| 20260507235515 | 71 | 325 | 2.0 | 10.0 | 0.00 | 0.00 | 0.00 | 31 | 1008.0 |
| 20260507234513 | 72 | 286 | 3.0 | 8.0 | 0.00 | 0.00 | 0.00 | 29 | 1007.9 |
| 20260507234015 | 72 | 291 | 3.0 | 12.0 | 0.00 | 0.00 | 0.00 | 30 | 1008.0 |
| 20260507233513 | 73 | 234 | 4.0 | 12.0 | 0.00 | 0.00 | 0.00 | 30 | 1008.0 |
| 20260507233013 | 73 | 9 | 4.0 | 10.0 | 0.00 | 0.00 | 0.00 | 29 | 1008.0 |
| 20260507232513 | 73 | 298 | 4.0 | 11.0 | 0.00 | 0.00 | 0.00 | 29 | 1008.0 |
| 20260507232013 | 73 | 304 | 4.0 | 11.0 | 0.00 | 0.00 | 0.00 | 31 | 1007.9 |
| 20260507231512 | 73 | 273 | 5.0 | 10.0 | 0.00 | 0.00 | 0.00 | 28 | 1008.0 |
| 20260507231012 | 73 | 22 | 2.0 | 10.0 | 0.00 | 0.00 | 0.00 | 29 | 1008.1 |
| 20260507230511 | 73 | 350 | 5.0 | 12.0 | 0.00 | 0.00 | 0.00 | 30 | 1007.8 |
| 20260507225511 | 74 | 309 | 6.0 | 13.0 | 0.00 | 0.00 | 0.00 | 30 | 1007.9 |
| 20260507225011 | 75 | 342 | 6.0 | 12.0 | 0.00 | 0.00 | 0.00 | 28 | 1007.8 |
| 20260507224510 | 76 | 336 | 4.0 | 9.0 | 0.00 | 0.00 | 0.00 | 29 | 1007.9 |
| 20260507224012 | 76 | 20 | 4.0 | 13.0 | 0.00 | 0.00 | 0.00 | 28 | 1007.8 |
| 20260507223510 | 76 | 316 | 5.0 | 13.0 | 0.00 | 0.00 | 0.00 | 29 | 1007.9 |
| 20260507223009 | 76 | 330 | 5.0 | 11.0 | 0.00 | 0.00 | 0.00 | 28 | 1007.9 |
| 20260507222509 | 76 | 273 | 2.0 | 10.0 | 0.00 | 0.00 | 0.00 | 28 | 1008.0 |
| 20260507222009 | 75 | 300 | 3.0 | 11.0 | 0.00 | 0.00 | 0.00 | 31 | 1007.9 |
| 20260507221508 | 75 | 291 | 2.0 | 14.0 | 0.00 | 0.00 | 0.00 | 29 | 1007.9 |
| 20260507220508 | 76 | 314 | 5.0 | 11.0 | 0.00 | 0.00 | 0.00 | 28 | 1007.9 |
| 20260507220007 | 75 | 15 | 5.0 | 10.0 | 0.00 | 0.00 | 0.00 | 31 | 1007.9 |
| 20260507215007 | 75 | 259 | 6.0 | 13.0 | 0.00 | 0.00 | 0.00 | 28 | 1007.8 |
| 20260507214506 | 75 | 298 | 4.0 | 13.0 | 0.00 | 0.00 | 0.00 | 32 | 1007.9 |
| 20260507214007 | 76 | 247 | 5.0 | 13.0 | 0.00 | 0.00 | 0.00 | 28 | 1007.9 |
| 20260507213506 | 76 | 11 | 4.0 | 13.0 | 0.00 | 0.00 | 0.00 | 30 | 1008.0 |
| 20260507213006 | 76 | 330 | 4.0 | 13.0 | 0.00 | 0.00 | 0.00 | 31 | 1007.9 |
| 20260507212505 | 76 | 342 | 4.0 | 11.0 | 0.00 | 0.00 | 0.00 | 29 | 1008.1 |
| 20260507211505 | 76 | 271 | 5.0 | 20.0 | 0.00 | 0.00 | 0.00 | 31 | 1008.1 |
| 20260507211004 | 76 | 334 | 6.0 | 13.0 | 0.00 | 0.00 | 0.00 | 30 | 1008.2 |
| 20260507210504 | 76 | 329 | 3.0 | 12.0 | 0.00 | 0.00 | 0.00 | 29 | 1008.2 |
| 20260507210005 | 76 | 11 | 7.0 | 14.0 | 0.00 | 0.00 | 0.00 | 30 | 1008.3 |
| 20260507205503 | 77 | 321 | 6.0 | 14.0 | 0.00 | 0.00 | 0.00 | 30 | 1008.3 |
| 20260507205003 | 77 | 291 | 7.0 | 11.0 | 0.00 | 0.00 | 0.00 | 29 | 1008.4 |
| 20260507204004 | 76 | 351 | 4.0 | 11.0 | 0.00 | 0.00 | 0.00 | 32 | 1008.4 |
| 20260507203501 | 76 | 296 | 4.0 | 11.0 | 0.00 | 0.00 | 0.00 | 30 | 1008.5 |
| 20260507203001 | 76 | 9 | 4.0 | 14.0 | 0.00 | 0.00 | 0.00 | 32 | 1008.6 |
| 20260507202500 | 75 | 351 | 4.0 | 14.0 | 0.00 | 0.00 | 0.00 | 32 | 1008.6 |
| 20260507202001 | 74 | 9 | 3.0 | 11.0 | 0.00 | 0.00 | 0.00 | 32 | 1008.6 |
| 20260507201500 | 74 | 323 | 5.0 | 11.0 | 0.00 | 0.00 | 0.00 | 36 | 1008.6 |
| 20260507201000 | 74 | 23 | 3.0 | 11.0 | 0.00 | 0.00 | 0.00 | 34 | 1008.6 |
| 20260507200500 | 74 | 298 | 4.0 | 11.0 | 0.00 | 0.00 | 0.00 | 31 | 1008.7 |
| 20260507195959 | 74 | 11 | 4.0 | 11.0 | 0.00 | 0.00 | 0.00 | 30 | 1008.7 |
| 20260507195500 | 74 | 255 | 4.0 | 12.0 | 0.00 | 0.00 | 0.00 | 35 | 1008.7 |
| 20260507194458 | 73 | 252 | 4.0 | 14.0 | 0.00 | 0.00 | 0.00 | 36 | 1008.6 |
| 20260507193959 | 73 | 249 | 8.0 | 14.0 | 0.00 | 0.00 | 0.00 | 31 | 1008.8 |
| 20260507193459 | 74 | 250 | 9.0 | 13.0 | 0.00 | 0.00 | 0.00 | 31 | 1008.7 |
| 20260507192957 | 73 | 302 | 5.0 | 13.0 | 0.00 | 0.00 | 0.00 | 38 | 1008.7 |
| 20260507192457 | 73 | 279 | 6.0 | 12.0 | 0.00 | 0.00 | 0.00 | 41 | 1008.7 |
| 20260507191457 | 73 | 242 | 6.0 | 13.0 | 0.00 | 0.00 | 0.00 | 36 | 1008.8 |
| 20260507190956 | 72 | 240 | 4.0 | 16.0 | 0.00 | 0.00 | 0.00 | 37 | 1008.7 |
| 20260507190457 | 72 | 286 | 4.0 | 16.0 | 0.00 | 0.00 | 0.00 | 41 | 1008.9 |
| 20260507185955 | 72 | 309 | 7.0 | 13.0 | 0.00 | 0.00 | 0.00 | 38 | 1008.9 |
| 20260507185457 | 72 | 9 | 3.0 | 12.0 | 0.00 | 0.00 | 0.00 | 35 | 1008.8 |
| 20260507184455 | 71 | 223 | 6.0 | 14.0 | 0.00 | 0.00 | 0.00 | 37 | 1009.0 |
| 20260507183956 | 71 | 294 | 7.0 | 18.0 | 0.00 | 0.00 | 0.00 | 37 | 1008.9 |
| 20260507183455 | 71 | 257 | 7.0 | 18.0 | 0.00 | 0.00 | 0.00 | 40 | 1009.1 |
| 20260507182453 | 69 | 243 | 5.0 | 12.0 | 0.00 | 0.00 | 0.00 | 37 | 1009.1 |
| 20260507181953 | 71 | 254 | 7.0 | 12.0 | 0.00 | 0.00 | 0.00 | 35 | 1009.2 |
| 20260507181453 | 71 | 216 | 5.0 | 16.0 | 0.00 | 0.00 | 0.00 | 40 | 1009.3 |
| 20260507180952 | 70 | 261 | 5.0 | 16.0 | 0.00 | 0.00 | 0.00 | 39 | 1009.4 |
| 20260507180452 | 69 | 267 | 8.0 | 16.0 | 0.00 | 0.00 | 0.00 | 41 | 1009.3 |
| 20260507175952 | 69 | 273 | 9.0 | 15.0 | 0.00 | 0.00 | 0.00 | 38 | 1009.5 |
| 20260507175452 | 69 | 238 | 7.0 | 16.0 | 0.00 | 0.00 | 0.00 | 37 | 1009.6 |
| 20260507173951 | 67 | 291 | 4.0 | 15.0 | 0.00 | 0.00 | 0.00 | 46 | 1009.6 |
| 20260507173450 | 67 | 240 | 9.0 | 16.0 | 0.00 | 0.00 | 0.00 | 39 | 1009.7 |
| 20260507172950 | 67 | 241 | 8.0 | 16.0 | 0.00 | 0.00 | 0.00 | 40 | 1009.8 |
| 20260507172450 | 67 | 230 | 5.0 | 17.0 | 0.00 | 0.00 | 0.00 | 42 | 1009.9 |
| 20260507171949 | 66 | 309 | 7.0 | 17.0 | 0.00 | 0.00 | 0.00 | 42 | 1010.0 |
| 20260507171448 | 66 | 236 | 8.0 | 15.0 | 0.00 | 0.00 | 0.00 | 39 | 1010.0 |
| 20260507170948 | 66 | 238 | 7.0 | 17.0 | 0.00 | 0.00 | 0.00 | 40 | 1010.0 |
| 20260507170448 | 66 | 196 | 9.0 | 17.0 | 0.00 | 0.00 | 0.00 | 40 | 1010.3 |
| 20260507165948 | 66 | 250 | 4.0 | 11.0 | 0.00 | 0.00 | 0.00 | 42 | 1010.3 |
| 20260507165447 | 65 | 270 | 5.0 | 16.0 | 0.00 | 0.00 | 0.00 | 43 | 1010.4 |
| 20260507164448 | 66 | 200 | 4.0 | 10.0 | 0.00 | 0.00 | 0.00 | 43 | 1010.5 |
| 20260507163946 | 65 | 221 | 5.0 | 10.0 | 0.00 | 0.00 | 0.00 | 46 | 1010.5 |
| 20260507163447 | 65 | 254 | 3.0 | 11.0 | 0.00 | 0.00 | 0.00 | 44 | 1010.5 |
| 20260507161444 | 63 | 229 | 7.0 | 12.0 | 0.00 | 0.00 | 0.00 | 45 | 1010.8 |
| 20260507160944 | 63 | 229 | 6.0 | 11.0 | 0.00 | 0.00 | 0.00 | 49 | 1010.8 |
| 20260507160443 | 62 | 212 | 6.0 | 10.0 | 0.00 | 0.00 | 0.00 | 49 | 1010.8 |
| 20260507155942 | 62 | 178 | 4.0 | 10.0 | 0.00 | 0.00 | 0.00 | 48 | 1010.8 |
| 20260507155443 | 62 | 229 | 5.0 | 11.0 | 0.00 | 0.00 | 0.00 | 49 | 1010.9 |
| 20260507154942 | 62 | 249 | 5.0 | 11.0 | 0.00 | 0.00 | 0.00 | 51 | 1010.9 |
| 20260507153941 | 62 | 205 | 5.0 | 9.0 | 0.00 | 0.00 | 0.00 | 53 | 1011.0 |
| 20260507153441 | 61 | 232 | 3.0 | 9.0 | 0.00 | 0.00 | 0.00 | 50 | 1011.1 |
| 20260507152940 | 61 | 229 | 6.0 | 9.0 | 0.00 | 0.00 | 0.00 | 54 | 1011.2 |
| 20260507152441 | 61 | 282 | 6.0 | 10.0 | 0.00 | 0.00 | 0.00 | 54 | 1011.2 |
| 20260507151939 | 60 | 225 | 6.0 | 10.0 | 0.00 | 0.00 | 0.00 | 54 | 1011.3 |
| 20260507151439 | 60 | 237 | 3.0 | 11.0 | 0.00 | 0.00 | 0.00 | 57 | 1011.3 |
| 20260507150939 | 60 | 237 | 4.0 | 12.0 | 0.00 | 0.00 | 0.00 | 57 | 1011.4 |
| 20260507150439 | 59 | 248 | 6.0 | 12.0 | 0.00 | 0.00 | 0.00 | 56 | 1011.6 |
| 20260507145938 | 59 | 294 | 6.0 | 11.0 | 0.00 | 0.00 | 0.00 | 58 | 1011.6 |
| 20260507145437 | 59 | 306 | 3.0 | 11.0 | 0.00 | 0.00 | 0.00 | 61 | 1011.7 |
| 20260507144937 | 58 | 244 | 7.0 | 10.0 | 0.00 | 0.00 | 0.00 | 58 | 1011.6 |
| 20260507143937 | 56 | 344 | 5.0 | 9.0 | 0.00 | 0.00 | 0.00 | 64 | 1011.7 |
| 20260507143437 | 56 | 279 | 4.0 | 11.0 | 0.00 | 0.00 | 0.00 | 64 | 1011.6 |
| 20260507142936 | 55 | 221 | 6.0 | 11.0 | 0.00 | 0.00 | 0.00 | 63 | 1011.7 |
| 20260507142436 | 55 | 257 | 2.0 | 11.0 | 0.00 | 0.00 | 0.00 | 66 | 1011.7 |
| 20260507141936 | 54 | 203 | 5.0 | 12.0 | 0.00 | 0.00 | 0.00 | 66 | 1011.7 |
| 20260507141435 | 54 | 194 | 6.0 | 14.0 | 0.00 | 0.00 | 0.00 | 65 | 1011.8 |
| 20260507140434 | 53 | 230 | 6.0 | 12.0 | 0.00 | 0.00 | 0.00 | 67 | 1011.9 |
| 20260507135433 | 52 | 215 | 8.0 | 13.0 | 0.00 | 0.00 | 0.00 | 68 | 1011.8 |
| 20260507134934 | 52 | 262 | 6.0 | 12.0 | 0.00 | 0.00 | 0.00 | 68 | 1011.8 |
| 20260507134434 | 52 | 225 | 7.0 | 12.0 | 0.00 | 0.00 | 0.00 | 69 | 1011.9 |
| 20260507133933 | 51 | 273 | 6.0 | 13.0 | 0.00 | 0.00 | 0.00 | 71 | 1011.8 |
| 20260507133433 | 51 | 284 | 7.0 | 13.0 | 0.00 | 0.00 | 0.00 | 71 | 1011.9 |
| 20260507132932 | 51 | 225 | 5.0 | 15.0 | 0.00 | 0.00 | 0.00 | 73 | 1012.0 |
| 20260507132429 | 50 | 225 | 8.0 | 15.0 | 0.00 | 0.00 | 0.00 | 73 | 1011.9 |
| 20260507131426 | 49 | 257 | 5.0 | 13.0 | 0.00 | 0.00 | 0.00 | 75 | 1011.8 |
| 20260507130926 | 49 | 209 | 6.0 | 13.0 | 0.00 | 0.00 | 0.00 | 76 | 1012.1 |
| 20260507130426 | 48 | 221 | 5.0 | 12.0 | 0.00 | 0.00 | 0.00 | 77 | 1012.1 |
| 20260507125925 | 48 | 231 | 6.0 | 12.0 | 0.00 | 0.00 | 0.00 | 76 | 1012.1 |
| 20260507125424 | 48 | 203 | 7.0 | 11.0 | 0.00 | 0.00 | 0.00 | 77 | 1012.1 |
| 20260507124924 | 47 | 192 | 6.0 | 11.0 | 0.00 | 0.00 | 0.00 | 78 | 1012.1 |
| 20260507124425 | 47 | 262 | 5.0 | 10.0 | 0.00 | 0.00 | 0.00 | 79 | 1012.1 |
| 20260507123925 | 47 | 207 | 6.0 | 11.0 | 0.00 | 0.00 | 0.00 | 79 | 1012.1 |
| 20260507122923 | 46 | 226 | 5.0 | 11.0 | 0.00 | 0.00 | 0.00 | 80 | 1012.1 |
| 20260507122423 | 46 | 217 | 5.0 | 10.0 | 0.00 | 0.00 | 0.00 | 80 | 1012.1 |
| 20260507121421 | 45 | 226 | 3.0 | 9.0 | 0.00 | 0.00 | 0.00 | 80 | 1012.2 |
| 20260507120920 | 45 | 221 | 4.0 | 9.0 | 0.00 | 0.00 | 0.00 | 80 | 1012.2 |
| 20260507120422 | 45 | 221 | 4.0 | 8.0 | 0.00 | 0.00 | 0.00 | 80 | 1012.1 |
| 20260507115919 | 45 | 203 | 3.0 | 7.0 | 0.00 | 0.00 | 0.00 | 80 | 1012.1 |
| 20260507115419 | 45 | 196 | 3.0 | 7.0 | 0.00 | 0.00 | 0.00 | 80 | 1012.1 |
| 20260507114918 | 45 | 232 | 3.0 | 8.0 | 0.00 | 0.00 | 0.00 | 80 | 1012.1 |
| 20260507114418 | 45 | 257 | 3.0 | 8.0 | 0.00 | 0.00 | 0.00 | 80 | 1012.2 |
| 20260507113919 | 45 | 193 | 3.0 | 6.0 | 0.00 | 0.00 | 0.00 | 80 | 1012.2 |
| 20260507113417 | 45 | 225 | 4.0 | 8.0 | 0.00 | 0.00 | 0.00 | 80 | 1012.3 |
| 20260507112916 | 45 | 212 | 4.0 | 8.0 | 0.00 | 0.00 | 0.00 | 79 | 1012.2 |
| 20260507112415 | 45 | 255 | 3.0 | 7.0 | 0.00 | 0.00 | 0.00 | 79 | 1012.2 |
| 20260507111916 | 45 | 261 | 3.0 | 8.0 | 0.00 | 0.00 | 0.00 | 79 | 1012.3 |
| 20260507111415 | 45 | 238 | 3.0 | 9.0 | 0.00 | 0.00 | 0.00 | 79 | 1012.2 |
| 20260507110914 | 45 | 230 | 5.0 | 9.0 | 0.00 | 0.00 | 0.00 | 79 | 1012.2 |
| 20260507110414 | 45 | 214 | 4.0 | 7.0 | 0.00 | 0.00 | 0.00 | 79 | 1012.2 |
| 20260507105413 | 45 | 207 | 3.0 | 7.0 | 0.00 | 0.00 | 0.00 | 78 | 1012.3 |
| 20260507104912 | 45 | 265 | 4.0 | 7.0 | 0.00 | 0.00 | 0.00 | 78 | 1012.2 |
| 20260507104412 | 45 | 221 | 3.0 | 7.0 | 0.00 | 0.00 | 0.00 | 78 | 1012.3 |
| 20260507103411 | 45 | 214 | 3.0 | 8.0 | 0.00 | 0.00 | 0.00 | 78 | 1012.2 |
| 20260507102911 | 46 | 241 | 2.0 | 9.0 | 0.00 | 0.00 | 0.00 | 77 | 1012.2 |
| 20260507102410 | 46 | 250 | 5.0 | 9.0 | 0.00 | 0.00 | 0.00 | 77 | 1012.2 |
| 20260507101910 | 46 | 223 | 2.0 | 7.0 | 0.00 | 0.00 | 0.00 | 77 | 1012.2 |
| 20260507100909 | 46 | 250 | 3.0 | 7.0 | 0.00 | 0.00 | 0.00 | 77 | 1012.2 |
| 20260507100409 | 46 | 254 | 3.0 | 6.0 | 0.00 | 0.00 | 0.00 | 77 | 1012.2 |
| 20260507095909 | 46 | 219 | 3.0 | 6.0 | 0.00 | 0.00 | 0.00 | 76 | 1012.3 |
| 20260507095408 | 46 | 196 | 4.0 | 7.0 | 0.00 | 0.00 | 0.00 | 76 | 1012.3 |
| 20260507094908 | 46 | 232 | 4.0 | 7.0 | 0.00 | 0.00 | 0.00 | 76 | 1012.3 |
| 20260507094407 | 46 | 225 | 4.0 | 7.0 | 0.00 | 0.00 | 0.00 | 75 | 1012.4 |
| 20260507093406 | 46 | 219 | 3.0 | 7.0 | 0.00 | 0.00 | 0.00 | 75 | 1012.4 |
| 20260507092906 | 46 | 229 | 4.0 | 7.0 | 0.00 | 0.00 | 0.00 | 76 | 1012.5 |
| 20260507091905 | 45 | 201 | 3.0 | 7.0 | 0.00 | 0.00 | 0.00 | 76 | 1012.5 |
| 20260507091405 | 45 | 265 | 3.0 | 7.0 | 0.00 | 0.00 | 0.00 | 76 | 1012.6 |
| 20260507090905 | 45 | 265 | 3.0 | 7.0 | 0.00 | 0.00 | 0.00 | 77 | 1012.6 |
| 20260507090404 | 44 | 201 | 2.0 | 7.0 | 0.00 | 0.00 | 0.00 | 77 | 1012.6 |
| 20260507085904 | 44 | 219 | 3.0 | 5.0 | 0.00 | 0.00 | 0.00 | 77 | 1012.7 |
| 20260507085403 | 43 | 214 | 2.0 | 5.0 | 0.00 | 0.00 | 0.00 | 77 | 1012.8 |
| 20260507084904 | 43 | 210 | 2.0 | 4.0 | 0.00 | 0.00 | 0.00 | 77 | 1012.9 |
| 20260507084404 | 42 | 234 | 1.0 | 4.0 | 0.00 | 0.00 | 0.00 | 75 | 1013.0 |
| 20260507083902 | 42 | 178 | 1.0 | 2.0 | 0.00 | 0.00 | 0.00 | 75 | 1013.0 |
| 20260507083402 | 42 | 221 | 0.0 | 2.0 | 0.00 | 0.00 | 0.00 | 74 | 1013.1 |
| 20260507082856 | 42 | 137 | 0.0 | 2.0 | 0.00 | 0.00 | 0.00 | 74 | 1013.3 |
| 20260507082357 | 42 | 161 | 1.0 | 2.0 | 0.00 | 0.00 | 0.00 | 74 | 1013.3 |
| 20260507081855 | 42 | 178 | 0.0 | 2.0 | 0.00 | 0.00 | 0.00 | 73 | 1013.4 |